Location: Observatory
(49.4490°N, 2.6360°W)
Time: 13:27:03
(UTC+01:00)

CAS-4A - Pass Details

Date: 05 May 2025
Orbit: 371 x 397 km, 43.0° (Epoch: 15 May)

Event Time Altitude Azimuth Distance (km) Brightness Sun altitude
Exits shadow 03:21:13 16° 132° (SE) 1,098 ? -17.9°
Drops below altitude 10° 03:22:06 10° 120° (ESE) 1,381 ? -17.8°
Sets 03:24:23 0° 106° (ESE) 2,238 ? -17.6°
